Flag for Australia Weather past 2 weeks in Sydney, New South Wales, Australia

Now
61 °F

Sunny.


Feels Like: 61 °F
Forecast: 42 / 56 °F
Wind: 13 mph from Northwest

Location: Sydney Airport

Current Time: Aug 3, 2015 at 10:38:27 AM

Latest Report: Aug 3, 2015 at 10:00 AM


Visibility: 10 mi

Pressure: 29.98 "Hg

Humidity: 31%

Dew point: 30 °F

Location of SydneyLocation

Historic Weather in Sydney — Graph

°F

Sydney temperature yesterday

Maximum temperature yesterday: 77 °F (at 3:00 PM)
Minimum temperature yesterday: 54 °F (at 6:00 AM)
Average temperature yesterday: 63 °F

Past Weeks' High & Low Weather Summary

 TemperatureHumidityPressure
High77 °F (Aug 2, 3:00 PM)100% (Jul 21, 12:00 AM)30.54 "Hg (Jul 21, 12:00 AM)
Low45 °F (Jul 28, 2:30 AM)20% (Aug 1, 2:00 PM)29.80 "Hg (Aug 2, 3:00 PM)
Average57 °F60%30.21 "Hg
* Reported Jul 19 9:00 AM — Aug 3 9:00 AM, Sydney, Weather by CustomWeather, © 2015

Note: Actual official high and low records may vary slightly from our data, if they occured in-between our weather recording intervals... More about our weather records

Advertising

Sydney weather history for previous 24 hours

 ConditionsComfort  
Time TempWeatherWind HumidityBarometerVisibility
9:00 AM
Mon, Aug 3
57 °FSunny.14 mph33%29.98 "Hg10 mi
8:30 AM55 °FSunny.13 mph36%29.95 "Hg10 mi
8:00 AM54 °FSunny.8 mph41%29.95 "Hg10 mi
7:30 AM54 °FSunny.10 mph41%29.95 "Hg10 mi
7:00 AM52 °FSunny.9 mph41%29.95 "Hg10 mi
6:30 AM50 °FSunny.9 mph47%29.95 "Hg10 mi
6:00 AM50 °FSunny.9 mph47%29.95 "Hg10 mi
5:30 AM50 °FClear.12 mph47%29.92 "Hg10 mi
5:00 AM50 °FClear.16 mph47%29.92 "Hg10 mi
4:30 AM50 °FClear.21 mph43%29.92 "Hg10 mi
4:00 AM52 °FClear.18 mph41%29.92 "Hg10 mi
3:30 AM52 °FClear.22 mph41%29.92 "Hg10 mi
3:00 AM52 °FClear.22 mph41%29.92 "Hg10 mi
2:30 AM54 °FClear.20 mph38%29.92 "Hg10 mi
2:00 AM54 °FClear.14 mph41%29.92 "Hg10 mi
1:30 AM55 °FClear.17 mph44%29.92 "Hg10 mi
1:00 AM55 °FClear.13 mph44%29.92 "Hg10 mi
12:30 AM57 °FClear.14 mph55%29.92 "Hg10 mi
12:00 AM57 °FClear.9 mph67%29.92 "Hg10 mi
11:30 PM
Sun, Aug 2
59 °FClear.12 mph63%29.92 "Hg10 mi
11:00 PM59 °FClear.13 mph63%29.92 "Hg10 mi
10:30 PM61 °FPassing clouds.6 mph63%29.92 "HgN/A
10:00 PM63 °FPassing clouds.8 mph56%29.92 "HgN/A
9:30 PM64 °FClear.16 mph49%29.92 "Hg10 mi
9:00 PM64 °FClear.22 mph49%29.89 "Hg10 mi
8:30 PM66 °FClear.24 mph43%29.89 "Hg10 mi
8:00 PM68 °FClear.20 mph38%29.89 "Hg10 mi
7:30 PM68 °FClear.16 mph38%29.89 "Hg10 mi
7:00 PM68 °FClear.20 mph38%29.89 "Hg10 mi
6:30 PM70 °FClear.18 mph35%29.89 "Hg10 mi
6:00 PM70 °FClear.14 mph35%29.86 "Hg10 mi
5:30 PM73 °FClear.14 mph29%29.83 "Hg10 mi
5:00 PM75 °FClear.17 mph27%29.83 "Hg10 mi
4:30 PM77 °FClear.20 mph24%29.80 "Hg10 mi
4:00 PM77 °FSunny.20 mph24%29.80 "Hg10 mi
3:30 PM77 °FSunny.17 mph22%29.80 "Hg10 mi
3:00 PM77 °FSunny.17 mph24%29.80 "Hg10 mi
2:30 PM75 °FSunny.12 mph27%29.83 "Hg10 mi
2:00 PM70 °FSunny.6 mph46%29.83 "Hg10 mi
1:30 PM68 °FSunny.7 mph46%29.86 "Hg10 mi
1:00 PM66 °FSunny.6 mph52%29.86 "Hg10 mi
12:30 PM66 °FSunny.3 mph46%29.86 "Hg10 mi
12:00 PM66 °FPassing clouds.6 mph46%29.89 "HgN/A
11:30 AM66 °FPassing clouds.6 mph43%29.89 "HgN/A
11:00 AM63 °FSunny.5 mph56%29.92 "Hg10 mi
10:30 AM64 °FSunny.7 mph46%29.95 "Hg10 mi
10:00 AM61 °FSunny.5 mph55%29.95 "Hg10 mi
Weather by CustomWeather, © 2015

See weather overviewHow to use our weather pages